De Kooy, Netherlands

11:18 PM CEST on August 28, 2016 (GMT +0200)
De Kooy Navy

Weather History for EHKD - March, 2013

Change the Weather History Date:

Wednesday, March 27, 2013

  Actual Average Record
Temperature  
Mean Temperature 34 °F -  
Max Temperature 41 °F 50 °F 60 °F (2006)
Min Temperature 28 °F 40 °F 28 °F (2013)
Degree Days  
Heating Degree Days 30    
Moisture  
Dew Point 22 °F    
Average Humidity 62    
Maximum Humidity 80    
Minimum Humidity 27    
Precipitation  
Precipitation 0.00 in 0.06 in - ()
Sea Level Pressure  
Sea Level Pressure 29.93 in    
Wind  
Wind Speed 16 mph ()    
Max Wind Speed 22 mph    
Max Gust Speed -    
Visibility 7.1 miles    
Events      
Averages and records for this station are not official NWS values.
T = Trace of Precipitation, MM = Missing Value Source: Averaged Metar Reports

Daily Weather History Graph

Daily Weather History Graph

Search for Another Location

Airport or City:

Trip Planner

Search our weather history database for the weather conditions in past years. The results will help you decide how hot, cold, wet, or windy it might be!

Date:

Astronomy

Mar. 27, 2013 Rise Set
Actual Time 6:26 AM CET 7:06 PM CET
Civil Twilight 5:51 AM CET 7:41 PM CET
Nautical Twilight 5:10 AM CET 8:23 PM CET
Astronomical Twilight 4:26 AM CET 9:07 PM CET
Moon 7:42 PM CET (3/27) 6:04 AM CET (3/27)
Length of Visible Light 13h 49m
Length of Day
12h 40m
Full, 100% of the Moon is Illuminated
Mar 27
Full
Apr 3
Last Quarter
Apr 10
New
Apr 18
First Quarter
Apr 25
Full

Hourly Weather History & Observations

Time (CET) Temp. Windchill Dew Point Humidity Pressure Visibility Wind Dir Wind Speed Gust Speed Precip Events Conditions
12:25 AM 30.2 °F 18.5 °F 24.8 °F 80% 29.98 in 6.2 mi ENE 17.3 mph - N/A   Partly Cloudy
12:55 AM 30.2 °F 18.5 °F 23.0 °F 75% 29.98 in 6.2 mi ENE 17.3 mph - N/A   Partly Cloudy
1:00 AM 30 °F - 24 °F 69% 30.00 in 28 mi ENE 17.9 mph - -   Partly Cloudy
1:25 AM 30.2 °F 18.5 °F 23.0 °F 75% 29.98 in 6.2 mi ENE 17.3 mph - N/A   Unknown
1:55 AM 30.2 °F 18.5 °F 23.0 °F 75% 29.98 in 6.2 mi East 17.3 mph - N/A   Unknown
2:25 AM 30.2 °F 18.5 °F 23.0 °F 75% 29.98 in 6.2 mi ENE 17.3 mph - N/A   Scattered Clouds
2:55 AM 30.2 °F 18.1 °F 23.0 °F 75% 29.98 in 6.2 mi East 18.4 mph - N/A   Unknown
3:25 AM 28.4 °F 15.8 °F 23.0 °F 80% 29.98 in 6.2 mi East 18.4 mph - N/A   Partly Cloudy
3:55 AM 28.4 °F 15.8 °F 23.0 °F 80% 29.95 in 6.2 mi East 18.4 mph - N/A   Partly Cloudy
4:00 AM 29 °F - 22 °F 67% 29.97 in 25 mi East 17.9 mph - -   Scattered Clouds
4:25 AM 28.4 °F 15.8 °F 23.0 °F 80% 29.95 in 6.2 mi East 18.4 mph - N/A   Partly Cloudy
4:55 AM 28.4 °F 16.6 °F 23.0 °F 80% 29.95 in 6.2 mi East 16.1 mph - N/A   Mostly Cloudy
5:25 AM 28.4 °F 15.8 °F 23.0 °F 80% 29.95 in 6.2 mi East 18.4 mph - N/A   Scattered Clouds
5:55 AM 28.4 °F 16.2 °F 21.2 °F 74% 29.95 in 6.2 mi East 17.3 mph - N/A   Mostly Cloudy
6:25 AM 28.4 °F 15.4 °F 21.2 °F 74% 29.95 in 6.2 mi East 19.6 mph - N/A   Unknown
6:55 AM 28.4 °F 15.8 °F 21.2 °F 74% 29.95 in 6.2 mi East 18.4 mph - N/A   Unknown
7:00 AM 28 °F - 21 °F 67% 29.96 in 19 mi East 17.9 mph - -   Partly Cloudy
7:25 AM 28.4 °F 16.2 °F 21.2 °F 74% 29.95 in 6.2 mi East 17.3 mph - N/A   Partly Cloudy
7:55 AM 28.4 °F 15.4 °F 21.2 °F 74% 29.95 in 6.2 mi East 19.6 mph - N/A   Mostly Cloudy
8:25 AM 30.2 °F 18.5 °F 23.0 °F 75% 29.95 in 6.2 mi East 17.3 mph - N/A   Unknown
8:55 AM 30.2 °F 18.5 °F 23.0 °F 75% 29.95 in 6.2 mi East 17.3 mph - N/A   Partly Cloudy
9:25 AM 32.0 °F 20.5 °F 21.2 °F 64% 29.95 in 6.2 mi East 18.4 mph - N/A   Mostly Cloudy
9:55 AM 32.0 °F 20.8 °F 23.0 °F 69% 29.95 in 6.2 mi East 17.3 mph - N/A   Partly Cloudy
10:00 AM 32 °F - 22 °F 54% 29.97 in 18 mi East 20.1 mph - -   Partly Cloudy
10:25 AM 32.0 °F 20.1 °F 21.2 °F 64% 29.95 in 6.2 mi East 19.6 mph - N/A   Unknown
10:55 AM 33.8 °F 21.9 °F 19.4 °F 56% 29.95 in 6.2 mi East 21.9 mph - N/A   Scattered Clouds
11:25 AM 33.8 °F 22.8 °F 19.4 °F 56% 29.95 in 6.2 mi East 18.4 mph - N/A   Partly Cloudy
11:55 AM 35.6 °F 24.5 °F 19.4 °F 52% 29.95 in 6.2 mi East 20.7 mph - N/A   Partly Cloudy
12:25 PM 37.4 °F 26.9 °F 19.4 °F 48% 29.92 in 6.2 mi East 20.7 mph - N/A   Unknown
12:55 PM 37.4 °F 26.9 °F 17.6 °F 45% 29.92 in 6.2 mi East 20.7 mph - N/A   Partly Cloudy
1:00 PM 38 °F - 16 °F 27% 29.93 in 16 mi East 20.1 mph - -   Partly Cloudy
1:25 PM 39.2 °F 29.6 °F 17.6 °F 42% 29.92 in 6.2 mi ENE 19.6 mph - N/A   Mostly Cloudy
1:55 PM 39.2 °F 29.3 °F 17.6 °F 42% 29.92 in 6.2 mi ENE 20.7 mph - N/A   Partly Cloudy
2:25 PM 39.2 °F 29.3 °F 17.6 °F 42% 29.89 in 6.2 mi ENE 20.7 mph - N/A   Unknown
2:55 PM 39.2 °F 29.8 °F 17.6 °F 42% 29.89 in 6.2 mi ENE 18.4 mph - N/A   Unknown
3:25 PM 41.0 °F 32.2 °F 17.6 °F 39% 29.89 in 6.2 mi East 18.4 mph - N/A   Partly Cloudy
3:55 PM 41.0 °F 31.9 °F 17.6 °F 39% 29.89 in 6.2 mi ENE 19.6 mph - N/A   Partly Cloudy
4:00 PM 41 °F - 19 °F 28% 29.89 in 19 mi ENE 17.9 mph - -  
4:25 PM 41.0 °F 32.2 °F 19.4 °F 42% 29.89 in 6.2 mi ENE 18.4 mph - N/A   Unknown
4:55 PM 39.2 °F 30.8 °F 23.0 °F 52% 29.89 in 6.2 mi ENE 15.0 mph - N/A   Partly Cloudy
5:25 PM 39.2 °F 31.6 °F 24.8 °F 56% 29.89 in 6.2 mi ENE 12.7 mph - N/A   Partly Cloudy
5:55 PM 39.2 °F 31.6 °F 23.0 °F 52% 29.89 in 6.2 mi ENE 12.7 mph - N/A   Partly Cloudy
6:25 PM 37.4 °F 29.8 °F 26.6 °F 65% 29.89 in 6.2 mi ENE 11.5 mph - N/A   Unknown
6:55 PM 37.4 °F 29.8 °F 24.8 °F 60% 29.89 in 6.2 mi ENE 11.5 mph - N/A   Partly Cloudy
7:00 PM 37 °F - 26 °F 52% 29.90 in 25 mi ENE 11.2 mph - -   Partly Cloudy
7:25 PM 37.4 °F 29.8 °F 24.8 °F 60% 29.89 in 6.2 mi East 11.5 mph - N/A   Mostly Cloudy
7:55 PM 35.6 °F 28.0 °F 24.8 °F 65% 29.89 in 6.2 mi ENE 10.4 mph - N/A   Unknown
8:25 PM 35.6 °F 28.0 °F 24.8 °F 65% 29.89 in 6.2 mi ENE 10.4 mph - N/A   Partly Cloudy
8:55 PM 35.6 °F 27.1 °F 24.8 °F 65% 29.92 in 6.2 mi ENE 12.7 mph - N/A   Unknown
9:19 PM 35.6 °F 26.6 °F 24.8 °F 65% 29.92 in 6.2 mi ENE 13.8 mph - N/A   Scattered Clouds
9:25 PM 35.6 °F 26.6 °F 24.8 °F 65% 29.92 in 6.2 mi ENE 13.8 mph - N/A   Scattered Clouds
9:55 PM 35.6 °F 27.1 °F 24.8 °F 65% 29.92 in 6.2 mi ENE 12.7 mph - N/A   Unknown
10:00 PM 34 °F - 24 °F 57% 29.93 in 25 mi ENE 13.4 mph - -  
10:25 PM 33.8 °F 24.3 °F 23.0 °F 65% 29.92 in 6.2 mi ENE 13.8 mph - N/A   Scattered Clouds
10:55 PM 33.8 °F 23.5 °F 24.8 °F 70% 29.92 in 6.2 mi ENE 16.1 mph - N/A   Scattered Clouds